Tracking 19846 objects as of 20-Sep-2019
HD Live streaming from Space Station
objects crossing your sky now

EXPLORER 38 (RAE-A)

Track EXPLORER 38 (RAE-A) now!
10-day predictions
EXPLORER 38 (RAE-A) is classified as:


NORAD ID: 3307
Int'l Code: 1968-055A
Perigee: 5,832.3 km
Apogee: 5,872.4 km
Inclination: 120.9 °
Period: 224.2 minutes
Semi major axis: 12223 km
RCS: 18.133 m2 (large)
Launch date: July 4, 1968
Source: United States (US)
Launch site: AIR FORCE WESTERN TEST RANGE (AFWTR)
aabbcc
Your satellite tracking list
Your tracking list is empty




NASA's NSSDC Master Catalog

Two Line Element Set (TLE):
1  3307U 68055A   19262.05098253 -.00000010  00000-0  00000+0 0  9990
2  3307 120.8551 310.8015 0016430 260.7789  99.0954  6.42417123201276
Source of the keplerian elements: AFSPC